This is the latest recevied weather packets stored in our database for station/object DL4JCP-6. If no packets are shown the sender has not sent any weather packets the latest 10 day(s).
| Time | Temp. | Humidity | Pressure | Rain* | Wind** | Luminosity | Snow |
|---|---|---|---|---|---|---|---|
| 1777639621 | 18.89° C | 46% | 1029.5 hPa | 0 mm | - | - | - |
| 1777639321 | 18.89° C | 47% | 1029.6 hPa | 0 mm | - | - | - |
| 1777639023 | 18.89° C | 46% | 1029.5 hPa | 0 mm | - | - | - |
| 1777638798 | 18.33° C | 50% | 1029.7 hPa | 0 mm | - | - | - |
| 1777638723 | 18.33° C | 50% | 1029.7 hPa | 0 mm | - | - | - |
| 1777638422 | 18.33° C | 45% | 1029.6 hPa | 0 mm | - | - | - |
| 1777638122 | 18.89° C | 46% | 1029.8 hPa | 0 mm | - | - | - |
| 1777637895 | 18.33° C | 48% | 1029.7 hPa | 0 mm | - | - | - |
| 1777637822 | 18.33° C | 48% | 1029.7 hPa | 0 mm | - | - | - |
| 1777637522 | 18.33° C | 47% | 1029.8 hPa | 0 mm | - | - | - |
| 1777637221 | 18.33° C | 47% | 1029.8 hPa | 0 mm | - | - | - |
| 1777636995 | 18.33° C | 46% | 1029.9 hPa | 0 mm | - | - | - |
| 1777636923 | 18.33° C | 46% | 1029.9 hPa | 0 mm | - | - | - |
| 1777636623 | 17.78° C | 50% | 1029.9 hPa | 0 mm | - | - | - |
| 1777636322 | 17.78° C | 47% | 1029.7 hPa | 0 mm | - | - | - |
| 1777636095 | 18.33° C | 48% | 1029.9 hPa | 0 mm | - | - | - |
| 1777636022 | 18.33° C | 48% | 1029.9 hPa | 0 mm | - | - | - |
| 1777635722 | 17.78° C | 48% | 1029.8 hPa | 0 mm | - | - | - |
| 1777635422 | 17.78° C | 48% | 1029.8 hPa | 0 mm | - | - | - |
| 1777635195 | 18.33° C | 48% | 1030.1 hPa | 0 mm | - | - | - |
| 1777635122 | 18.33° C | 48% | 1030.1 hPa | 0 mm | - | - | - |
| 1777634822 | 17.78° C | 47% | 1030 hPa | 0 mm | - | - | - |
| 1777634522 | 17.78° C | 50% | 1030 hPa | 0 mm | - | - | - |
| 1777634298 | 18.33° C | 52% | 1030.2 hPa | 0 mm | - | - | - |
| 1777634222 | 18.33° C | 52% | 1030.2 hPa | 0 mm | - | - | - |
* Rain latest hour (hover to see other rain measurements)
** Current wind speed in m/s (hover to see current wind gust speed)